Weather in Tokunoshima Island

Japan     27°50′10″N   128°52′52″E
temp.,
°C
wind,
m/s
gust,
m/s
humid.,
%
clouds,
%
prec.,
mm/h
press.,
hPa
HPBL,
m
28 november, sun
sun2800:00+20ene1011610 0.0 10281489
03:00+19ene1011617 0.0 10271596
06:00+19ene10125958 0.0 10271631
09:00+20e1012573 0.1 10281815
12:00+21e10115797 0.1 10271943
15:00+20e9105794 0.1 10251943
18:00+20e91062100 0.1 10271430
21:00+20e101160100 0.1 10261680
29 november, mon
mon2900:00+20e91057100 0.0 10261777
03:00+20e8962100 0.1 10251476
06:00+20e8965100 0.3 10241493
09:00+20e8966100 0.8 10251216
12:00+20e8968100 0.4 10231219
15:00+21e786482 1.0 10221332
18:00+21e8963100 0.2 10221432
21:00+21e9106788 0.4 10231249
30 november, tue
tue3000:00+21ese9106789 0.2 10211381
03:00+21ese8968100 0.3 10191195
06:00+21se687182 0.9 1019910
09:00+22ese897118 1.1 10181159
12:00+22sse9106899 0.0 10151353
15:00+23s81068100 0.1 10131373
18:00+21sw91292100 5.6 1012945
21:00+19nnw131682100 13.9 10151187
1 december, wed
wed100:00+18nnw121471100 0.6 10161393
03:00+17nnw121468100 0.8 10171603
06:00+16nnw111366100 0.1 10191731
09:00+16nnw111367100 0.3 10201680
12:00+16nnw101265100 0.1 10201796
15:00+16n101357100 0.2 10191934
18:00+16n111364100 0.2 10211809
21:00+16n101266100 0.4 10221677
2 december, thu
thu200:00+16n8962100 0.1 10211586
03:00+16nne6769100 0.4 10201161
06:00+16n676595 0.4 10201295
09:00+16n676592 0.6 10211263
12:00+17nne5664100 0.3 10201261
15:00+17n556385 0.5 10201200
18:00+17n566440 0.2 10201091
21:00+17nne456494 0.4 1021976